[[{"header":{"parameterUnit":"m.s-1","parameterCategory":1,"la1":30.2991,"la2":30.254,"lo1":-89.0895,"lo2":-89.0444,"dy":0.0017,"dx":0.0017,"nx":28,"ny":28,"refTime":"2025-03-23T09:00:00:Z","depth":0,"parameterNumber":2,"parameterNumberName":"U-component_of_WINDS"},"data":[0,0,0,0,0,0,0,0,0,0,0,0,0,0,0,0,0,0,0,0,0,0,0,0,0,0,0,0,0,0,0,0,0,0,0,0,0,0,0,0,0,0,0,0,0,0,0,0,0,0,0,0,0,0,0,0,0,0,-0.2237,-0.2237,0,-0.2256,-0.2256,-0.2256,-0.226,-0.226,-0.226,-0.226,-0.228,-0.2281,-0.2281,0,0,0,0,0,0,0,0,0,0,0,0,0,-0.2206,-0.2207,-0.2237,-0.2237,-0.2237,-0.2256,-0.2256,-0.2256,-0.226,-0.226,-0.226,-0.226,-0.228,-0.2281,-0.2281,0,0,0,0,0,0,0,0,0,0,0,0,0,-0.2222,-0.2207,-0.2237,-0.2242,-0.2242,-0.2256,-0.2256,-0.2256,-0.226,-0.226,-0.226,-0.226,-0.228,-0.2281,-0.2281,-0.2292,0,0,-0.2285,-0.2285,0,0,0,0,0,0,0,0,-0.2221,-0.2223,-0.2241,-0.2241,-0.2242,-0.2255,-0.2252,-0.2268,-0.226,-0.2254,-0.226,-0.226,-0.2272,-0.2274,-0.2278,-0.2293,-0.2294,-0.2285,-0.2285,-0.2286,-0.2286,0,0,0,0,0,0,0,-0.222,-0.2222,-0.2244,-0.2241,-0.2242,-0.2243,-0.2245,-0.2255,-0.2264,-0.2254,-0.2254,-0.2257,-0.2272,-0.2277,-0.2278,-0.2294,-0.2285,-0.2285,-0.2286,-0.2286,-0.2319,-0.2319,0,0,0,0,0,0,-0.2218,-0.2221,-0.2244,-0.2245,-0.2231,-0.2244,-0.2246,-0.2251,-0.2264,-0.2265,-0.2257,-0.2257,-0.2275,-0.2277,-0.2279,-0.2292,-0.2286,-0.2287,-0.2287,-0.2319,-0.2319,-0.2319,0,0,0,0,0,0,-0.2217,-0.222,-0.2243,-0.2233,-0.2236,-0.2245,-0.2251,-0.2252,-0.2256,-0.2266,-0.2267,-0.2259,-0.2275,-0.2278,-0.2289,-0.2293,-0.2287,-0.2288,-0.2318,-0.2319,-0.2319,-0.2318,0,0,0,0,0,0,-0.2216,-0.2219,-0.2223,-0.2233,-0.2237,-0.2252,-0.2251,-0.2252,-0.2258,-0.2258,-0.2269,-0.227,-0.2275,-0.2287,-0.229,-0.2294,-0.2289,-0.2318,-0.2319,-0.2319,-0.2318,-0.2318,-0.2319,0,0,0,0,0,-0.2215,-0.2222,-0.2223,-0.2226,-0.2241,-0.2252,-0.2254,-0.2259,-0.2258,-0.2262,-0.2268,-0.227,-0.2292,-0.2288,-0.2291,-0.2296,-0.2318,-0.2318,-0.2319,-0.2318,-0.2318,-0.2319,0,0,0,0,0,0,-0.2212,-0.2223,-0.2225,-0.2235,-0.2243,-0.2253,-0.2258,-0.226,-0.2268,-0.2268,-0.2274,-0.2277,-0.2288,-0.2293,-0.2289,-0.2307,-0.2305,-0.2306,-0.2303,-0.2304,-0.2304,-0.2303,-0.229,0,0,0,0,0,-0.2212,-0.222,-0.223,-0.2238,-0.2242,-0.2249,-0.2254,-0.2257,-0.2266,-0.2269,-0.2276,-0.2284,-0.2293,-0.2299,-0.2307,-0.2319,-0.2321,-0.2324,-0.2324,-0.2325,-0.2325,-0.2332,-0.2334,-0.2321,-0.2321,-0.2321,0,0,-0.2214,-0.2221,-0.2225,-0.2238,-0.2244,-0.2252,-0.2252,-0.226,-0.2266,-0.227,-0.2281,-0.2287,-0.2296,-0.2308,-0.2313,-0.2313,-0.233,-0.2325,-0.2326,-0.2326,-0.2333,-0.2334,-0.2335,-0.2322,-0.2322,-0.2322,0,0,-0.222,-0.2226,-0.2234,-0.224,-0.225,-0.2255,-0.2257,-0.2267,-0.227,-0.2281,-0.2285,-0.2293,-0.2307,-0.2314,-0.232,-0.233,-0.2332,-0.2332,-0.2335,-0.2342,-0.2343,-0.2344,-0.2347,-0.2349,-0.2333,-0.2333,-0.2333,0,-0.222,-0.2232,-0.2238,-0.2246,-0.2252,-0.2255,-0.2264,-0.227,-0.2282,-0.2286,-0.2285,-0.2304,-0.2311,-0.2324,-0.2327,-0.2331,-0.2334,-0.2331,-0.2342,-0.2343,-0.2344,-0.2348,-0.2349,-0.2333,-0.2333,-0.2333,-0.2333,0,-0.2232,-0.2241,-0.2246,-0.2257,-0.2263,-0.2272,-0.2279,-0.2285,-0.2288,-0.2293,-0.2305,-0.2313,-0.2324,-0.2327,-0.233,-0.2341,-0.2341,-0.2341,-0.2339,-0.2345,-0.2349,-0.235,-0.2333,-0.2333,-0.2333,-0.2333,0,0,-0.2237,-0.2251,-0.2253,-0.2258,-0.2269,-0.2276,-0.2285,-0.2295,-0.23,-0.2309,-0.2317,-0.233,-0.233,-0.2336,-0.234,-0.2346,-0.2354,-0.2346,-0.2346,-0.2347,-0.2367,-0.2366,-0.2368,-0.2356,-0.2356,-0.2356,-0.2366,0,-0.2244,-0.226,-0.2265,-0.2278,-0.2286,-0.229,-0.2298,-0.2306,-0.2312,-0.232,-0.2326,-0.2335,-0.2335,-0.2339,-0.2345,-0.2352,-0.2358,-0.2351,-0.2363,-0.2364,-0.236,-0.237,-0.2369,-0.2378,-0.2367,-0.2368,-0.2368,0,-0.2255,-0.2263,-0.2277,-0.2288,-0.2291,-0.2298,-0.2308,-0.2316,-0.2325,-0.2329,-0.2336,-0.234,-0.235,-0.2348,-0.2362,-0.2357,-0.2363,-0.2367,-0.2367,-0.2368,-0.2366,-0.2371,-0.2381,-0.2382,-0.237,-0.237,-0.237,0,-0.2257,-0.2272,-0.2282,-0.2286,-0.2299,-0.2304,-0.2309,-0.2318,-0.2324,-0.2334,-0.2338,-0.2348,-0.2353,-0.2362,-0.2368,-0.2366,-0.2382,-0.238,-0.2386,-0.2385,-0.2388,-0.2388,-0.2399,-0.2392,-0.2392,-0.2392,-0.2392,0,-0.2265,-0.2273,-0.2283,-0.2289,-0.2299,-0.2305,-0.2315,-0.2321,-0.2329,-0.2337,-0.2341,-0.2349,-0.2357,-0.2366,-0.2371,-0.2382,-0.2385,-0.2389,-0.239,-0.2388,-0.2388,-0.2391,-0.2391,-0.2393,-0.2392,-0.2392,-0.2392,0,-0.2269,-0.2276,-0.2287,-0.2298,-0.2301,-0.2307,-0.2317,-0.2324,-0.233,-0.234,-0.2342,-0.2352,-0.2362,-0.237,-0.2383,-0.2387,-0.2399,-0.24,-0.2396,-0.2396,-0.2401,-0.2401,-0.2415,-0.2418,-0.2409,-0.2409,-0.2409,0,-0.2273,-0.228,-0.2291,-0.2297,-0.2302,-0.2311,-0.2317,-0.2324,-0.233,-0.2342,-0.2347,-0.2358,-0.2367,-0.2384,-0.2392,-0.2403,-0.2404,-0.2409,-0.2406,-0.2404,-0.2405,-0.2404,-0.2405,-0.2409,-0.2409,-0.2409,-0.2409,0,-0.2281,-0.2284,-0.2292,-0.2302,-0.2309,-0.2317,-0.2326,-0.233,-0.2339,-0.2346,-0.2356,-0.2363,-0.2377,-0.2388,-0.24,-0.2406,-0.2409,-0.241,-0.2412,-0.241,-0.2407,-0.2409,-0.2397,-0.241,-0.241,-0.241,-0.241,-0.241,-0.2285,-0.2291,-0.23,-0.231,-0.2317,-0.2324,-0.2331,-0.2338,-0.2347,-0.2358,-0.2362,-0.2373,-0.2384,-0.2399,-0.2406,-0.2415,-0.2415,-0.2417,-0.2418,-0.2419,-0.2419,-0.2406,-0.2417,-0.2417,-0.2417,-0.2417,-0.2417,0,-0.2293,-0.2299,-0.2308,-0.2319,-0.2327,-0.2329,-0.2338,-0.2345,-0.2354,-0.2363,-0.2372,-0.2384,-0.2395,-0.2404,-0.2416,-0.2421,-0.2423,-0.2424,-0.2424,-0.2425,-0.2418,-0.2415,-0.2422,-0.2422,-0.2422,-0.2422,-0.2422,-0.2422,-0.2298,-0.2308,-0.2312,-0.2326,-0.2333,-0.2343,-0.2349,-0.2356,-0.2363,-0.2377,-0.2386,-0.2392,-0.2401,-0.2413,-0.2423,-0.2426,-0.243,-0.243,-0.2433,-0.2426,-0.2426,-0.2425,-0.2423,-0.2431,-0.2431,-0.244,-0.244,-0.244]},{"header":{"parameterUnit":"m.s-1","parameterCategory":1,"la1":30.2991,"la2":30.254,"lo1":-89.0895,"lo2":-89.0444,"dy":0.0017,"dx":0.0017,"nx":28,"ny":28,"refTime":"2025-03-23T09:00:00:Z","depth":0,"parameterNumber":3,"parameterNumberName":"V-component_of_WINDS"},"data":[0,0,0,0,0,0,0,0,0,0,0,0,0,0,0,0,0,0,0,0,0,0,0,0,0,0,0,0,0,0,0,0,0,0,0,0,0,0,0,0,0,0,0,0,0,0,0,0,0,0,0,0,0,0,0,0,0,0,3.9344,3.9344,0,3.9378,3.9378,3.9379,3.9376,3.9375,3.9375,3.9374,3.9407,3.9408,3.9409,0,0,0,0,0,0,0,0,0,0,0,0,0,3.9274,3.9276,3.9344,3.9344,3.9344,3.9378,3.9378,3.9379,3.9376,3.9375,3.9374,3.9374,3.9406,3.9408,3.941,0,0,0,0,0,0,0,0,0,0,0,0,0,3.9306,3.9276,3.9343,3.9347,3.9348,3.9378,3.9378,3.9379,3.9376,3.9375,3.9374,3.9374,3.9406,3.9408,3.941,3.9438,0,0,3.9416,3.9417,0,0,0,0,0,0,0,0,3.9304,3.9309,3.9346,3.9347,3.9348,3.9372,3.9366,3.9398,3.9376,3.9365,3.9374,3.9373,3.9396,3.9398,3.9406,3.9439,3.9441,3.9416,3.9417,3.9418,3.9419,0,0,0,0,0,0,0,3.9302,3.9307,3.9357,3.9347,3.9348,3.9346,3.935,3.9372,3.9384,3.9366,3.9366,3.937,3.9396,3.9405,3.9407,3.9441,3.9416,3.9418,3.9419,3.942,3.9501,3.9502,0,0,0,0,0,0,3.9299,3.9305,3.9356,3.9358,3.9324,3.9348,3.9352,3.9365,3.9384,3.9386,3.9371,3.937,3.9401,3.9405,3.9408,3.9444,3.9418,3.942,3.9421,3.95,3.9501,3.9502,0,0,0,0,0,0,3.9298,3.9304,3.9355,3.9332,3.9338,3.935,3.9364,3.9366,3.9374,3.9388,3.9389,3.9377,3.9401,3.9405,3.9431,3.9445,3.9421,3.9423,3.9499,3.95,3.9502,3.9515,0,0,0,0,0,0,3.9296,3.9303,3.9314,3.9332,3.9339,3.9377,3.9365,3.9367,3.9378,3.9377,3.9394,3.9396,3.9401,3.9428,3.9433,3.9448,3.9425,3.9498,3.95,3.9501,3.9513,3.9517,3.952,0,0,0,0,0,3.9293,3.9316,3.9315,3.9321,3.9353,3.9378,3.9382,3.9387,3.9379,3.9391,3.9399,3.9396,3.9443,3.9431,3.9436,3.9452,3.9497,3.9499,3.9501,3.9512,3.9516,3.9519,0,0,0,0,0,0,3.9298,3.9318,3.9317,3.9346,3.9361,3.9377,3.9392,3.9391,3.9407,3.9406,3.9411,3.9414,3.9441,3.9448,3.9435,3.9481,3.9469,3.9472,3.9475,3.9479,3.9482,3.948,3.9426,0,0,0,0,0,3.9303,3.9322,3.9338,3.9361,3.9369,3.9379,3.939,3.9393,3.9408,3.9413,3.9424,3.9438,3.9456,3.9468,3.9485,3.9514,3.9519,3.9527,3.953,3.9533,3.9536,3.9554,3.9559,3.9509,3.9509,3.9509,0,0,3.9312,3.9325,3.9336,3.9363,3.9374,3.9394,3.9384,3.9404,3.9419,3.9416,3.9442,3.945,3.9466,3.9494,3.9507,3.9502,3.9551,3.9536,3.9537,3.9539,3.9557,3.9562,3.9566,3.951,3.951,3.951,0,0,3.9339,3.9351,3.9373,3.9385,3.9403,3.941,3.9415,3.9433,3.9439,3.9465,3.9463,3.948,3.9511,3.9523,3.9533,3.9567,3.9565,3.9572,3.9589,3.9606,3.961,3.9614,3.9628,3.9632,3.9575,3.9575,3.9575,0,3.9348,3.9378,3.9384,3.9406,3.9418,3.9417,3.944,3.9451,3.9473,3.9482,3.9475,3.9515,3.9525,3.9558,3.9566,3.9573,3.9581,3.9571,3.9609,3.9613,3.9616,3.963,3.9635,3.9576,3.9576,3.9576,3.9576,0,3.939,3.9411,3.9426,3.945,3.9463,3.9485,3.9494,3.9507,3.9509,3.9517,3.9544,3.9557,3.9578,3.9585,3.9586,3.9618,3.9614,3.9608,3.9596,3.9622,3.9635,3.964,3.9577,3.9577,3.9577,3.9576,0,0,3.9421,3.9449,3.9454,3.9466,3.9486,3.9503,3.9525,3.9546,3.9558,3.9573,3.9593,3.9619,3.9615,3.9626,3.9629,3.9644,3.9673,3.9637,3.9637,3.9645,3.9711,3.9716,3.9722,3.9671,3.9672,3.9673,3.971,0,3.9452,3.9493,3.9499,3.9535,3.9555,3.9555,3.9575,3.9589,3.9597,3.9615,3.9623,3.9643,3.9634,3.9642,3.9657,3.9666,3.9686,3.9663,3.969,3.9691,3.9688,3.9728,3.9734,3.9768,3.9715,3.9715,3.9716,0,3.9494,3.9512,3.9551,3.957,3.9579,3.9596,3.9618,3.9635,3.9651,3.9656,3.967,3.9671,3.9695,3.9681,3.9714,3.9698,3.971,3.9716,3.9717,3.9721,3.9706,3.9735,3.9779,3.9785,3.9724,3.9723,3.9722,0,3.9515,3.955,3.9578,3.9587,3.961,3.9623,3.9633,3.9649,3.9662,3.968,3.9689,3.9709,3.972,3.9736,3.9743,3.9732,3.9776,3.9762,3.9781,3.9781,3.9792,3.9791,3.984,3.9796,3.9796,3.9796,3.9796,0,3.955,3.9574,3.9588,3.9605,3.9632,3.9639,3.9666,3.9675,3.969,3.9709,3.9709,3.9727,3.9734,3.9754,3.9759,3.9787,3.9791,3.9796,3.9797,3.9797,3.9797,3.9806,3.9804,3.9797,3.9797,3.9797,3.9796,0,3.958,3.959,3.9621,3.964,3.9646,3.9665,3.9682,3.9699,3.9707,3.9732,3.9738,3.975,3.9773,3.9781,3.9808,3.9812,3.9845,3.9843,3.9839,3.984,3.986,3.9858,3.9917,3.9926,3.9874,3.9875,3.9875,0,3.9602,3.9621,3.9644,3.9657,3.9668,3.969,3.9704,3.9711,3.9725,3.9747,3.9762,3.9784,3.9803,3.984,3.9851,3.9872,3.9873,3.9892,3.9876,3.9876,3.9875,3.9875,3.9878,3.9895,3.9896,3.9896,3.9896,0,3.9642,3.9647,3.9667,3.969,3.9707,3.9725,3.9742,3.9753,3.9763,3.9779,3.9803,3.9818,3.9847,3.987,3.9892,3.9902,3.9902,3.9901,3.9907,3.9908,3.9906,3.991,3.985,3.99,3.99,3.99,3.9899,3.9899,3.967,3.9688,3.9707,3.973,3.9745,3.9761,3.9779,3.979,3.981,3.9835,3.9838,3.9864,3.9882,3.9912,3.9923,3.9944,3.9938,3.9946,3.9949,3.9951,3.9954,3.9902,3.9947,3.9947,3.9947,3.9947,3.9947,0,3.9712,3.9725,3.9746,3.9772,3.979,3.9788,3.9808,3.9823,3.9847,3.9864,3.9883,3.9911,3.9934,3.9948,3.9971,3.9985,3.9985,3.9991,3.9991,3.9994,3.9956,3.995,3.9991,3.9991,3.999,3.999,3.999,3.999,3.9736,3.9767,3.9773,3.9811,3.9823,3.985,3.9862,3.9877,3.9891,3.9923,3.9943,3.9952,3.9968,3.9992,4.0013,4.0017,4.0026,4.0033,4.0036,4.0,3.9996,3.9992,3.9986,4.0034,4.0034,4.0072,4.0072,4.0073]}]]